When you browse on this site, cookies collect data to enhance your experience and personalize the content and advertising you see.
Visit our Privacy Policy to learn more. By continuing to use the site, you agree to this use of cookies and data.
  • In Schweiz
  • Länderverzeichnis
  • Für 7 Tage
  • Wassertemperatur
  • Satellitenkarten
  • Wetterkarte
  • Widgets
  • user-avatar
    Anmelden

    Stündliche Wetter Kurytyba

    Heute, 22 Januar, Dienstag

    Zeit Temperatur Niederschläge Wind Luftdruck Luftfeuchtigkeit
    00:00 +20°C° 0 mm 0 m/S 683 mmHg 86%
    01:00 +20°C° 0 mm 0 m/S 683 mmHg 88%
    02:00 +20°C° 0 mm 0 m/S 683 mmHg 89%
    03:00 +20°C° 0 mm 0 m/S 682 mmHg 91%
    04:00 +19°C° 0 mm 0 m/S 682 mmHg 92%
    05:00 +19°C° 0 mm 0 m/S 683 mmHg 93%
    06:00 +19°C° 0 mm 0 m/S 683 mmHg 95%
    07:00 +21°C° 0 mm 0 m/S 683 mmHg 85%
    08:00 +26°C° 0 mm 1 m/S 684 mmHg 75%
    09:00 +28°C° 0 mm 1 m/S 685 mmHg 66%
    10:00 +29°C° 0.5 mm 1 m/S 685 mmHg 62%
    11:00 +31°C° 0.5 mm 1 m/S 685 mmHg 59%
    12:00 +30°C° 0.5 mm 0 m/S 685 mmHg 55%
    13:00 +31°C° 1.1 mm 1 m/S 684 mmHg 60%
    14:00 +30°C° 1.1 mm 1 m/S 684 mmHg 66%
    15:00 +30°C° 1.1 mm 1 m/S 683 mmHg 71%
    16:00 +28°C° 2.4 mm 1 m/S 683 mmHg 76%
    17:00 +27°C° 2.4 mm 2 m/S 683 mmHg 82%
    18:00 +26°C° 2.4 mm 2 m/S 682 mmHg 87%
    19:00 +25°C° 0.2 mm 2 m/S 683 mmHg 90%
    20:00 +24°C° 0.2 mm 2 m/S 683 mmHg 93%
    21:00 +23°C° 0.2 mm 2 m/S 683 mmHg 95%
    22:00 +23°C° 0 mm 2 m/S 683 mmHg 95%
    23:00 +21°C° 0 mm 2 m/S 684 mmHg 95%

    Morgen, 23 Januar, Mittwoch

    Zeit Temperatur Niederschläge Wind Luftdruck Luftfeuchtigkeit
    00:00 +22°C° 0 mm 1 m/S 684 mmHg 96%
    01:00 +22°C° 0 mm 1 m/S 683 mmHg 95%
    02:00 +22°C° 0 mm 1 m/S 683 mmHg 95%
    03:00 +22°C° 0 mm 1 m/S 683 mmHg 95%
    04:00 +19°C° 0 mm 0 m/S 683 mmHg 95%
    05:00 +19°C° 0 mm 0 m/S 683 mmHg 95%
    06:00 +19°C° 0 mm 0 m/S 683 mmHg 96%
    07:00 +21°C° 0 mm 0 m/S 684 mmHg 86%
    08:00 +24°C° 0 mm 0 m/S 684 mmHg 76%
    09:00 +26°C° 0 mm 0 m/S 685 mmHg 66%
    10:00 +28°C° 0 mm 0 m/S 686 mmHg 59%
    11:00 +30°C° 0 mm 0 m/S 686 mmHg 52%
    12:00 +32°C° 0 mm 0 m/S 686 mmHg 45%
    13:00 +30°C° 0.8 mm 0 m/S 685 mmHg 56%
    14:00 +30°C° 0.8 mm 1 m/S 683 mmHg 66%
    15:00 +28°C° 0.8 mm 1 m/S 682 mmHg 76%
    16:00 +27°C° 2.2 mm 1 m/S 682 mmHg 79%
    17:00 +27°C° 2.2 mm 1 m/S 682 mmHg 82%
    18:00 +26°C° 2.2 mm 1 m/S 682 mmHg 85%
    19:00 +25°C° 0.2 mm 1 m/S 682 mmHg 87%
    20:00 +24°C° 0.2 mm 1 m/S 683 mmHg 88%
    21:00 +24°C° 0.2 mm 1 m/S 683 mmHg 89%
    22:00 +23°C° 0 mm 1 m/S 683 mmHg 90%
    23:00 +23°C° 0 mm 1 m/S 683 mmHg 91%

    übermorgen, 24 Januar, Donnerstag

    Zeit Temperatur Niederschläge Wind Luftdruck Luftfeuchtigkeit
    00:00 +23°C° 0 mm 1 m/S 683 mmHg 92%
    01:00 +20°C° 0 mm 0 m/S 682 mmHg 93%
    02:00 +20°C° 0 mm 0 m/S 682 mmHg 94%
    03:00 +20°C° 0 mm 0 m/S 681 mmHg 95%
    04:00 +20°C° 0 mm 0 m/S 682 mmHg 95%
    05:00 +19°C° 0 mm 0 m/S 682 mmHg 95%
    06:00 +19°C° 0 mm 0 m/S 682 mmHg 95%
    07:00 +23°C° 0 mm 1 m/S 682 mmHg 86%
    08:00 +25°C° 0 mm 1 m/S 683 mmHg 76%
    09:00 +27°C° 0 mm 1 m/S 684 mmHg 66%
    10:00 +28°C° 0.1 mm 1 m/S 684 mmHg 61%
    11:00 +30°C° 0.1 mm 2 m/S 684 mmHg 56%
    12:00 +31°C° 0.1 mm 2 m/S 684 mmHg 51%
    13:00 +30°C° 1 mm 2 m/S 684 mmHg 60%
    14:00 +29°C° 1 mm 2 m/S 683 mmHg 68%
    15:00 +28°C° 1 mm 2 m/S 682 mmHg 77%
    16:00 +26°C° 2 mm 2 m/S 682 mmHg 80%
    17:00 +25°C° 2 mm 3 m/S 682 mmHg 83%
    18:00 +24°C° 2 mm 3 m/S 682 mmHg 86%
    19:00 +23°C° 0.9 mm 2 m/S 683 mmHg 89%
    20:00 +21°C° 0.9 mm 2 m/S 683 mmHg 91%
    21:00 +20°C° 0.9 mm 2 m/S 683 mmHg 94%
    22:00 +20°C° 0 mm 2 m/S 683 mmHg 94%
    23:00 +20°C° 0 mm 2 m/S 684 mmHg 95%

    25 Januar, Freitag

    Zeit Temperatur Niederschläge Wind Luftdruck Luftfeuchtigkeit
    00:00 +20°C° 0 mm 1 m/S 684 mmHg 95%
    01:00 +20°C° 0 mm 1 m/S 683 mmHg 95%
    02:00 +20°C° 0 mm 1 m/S 682 mmHg 96%
    03:00 +19°C° 0 mm 1 m/S 681 mmHg 96%
    04:00 +19°C° 0 mm 1 m/S 681 mmHg 96%
    05:00 +19°C° 0 mm 1 m/S 681 mmHg 96%
    06:00 +19°C° 0 mm 1 m/S 681 mmHg 96%
    07:00 +20°C° 0 mm 1 m/S 682 mmHg 90%
    08:00 +22°C° 0 mm 1 m/S 683 mmHg 85%
    09:00 +23°C° 0 mm 1 m/S 684 mmHg 80%
    10:00 +25°C° 0 mm 2 m/S 684 mmHg 71%
    11:00 +27°C° 0 mm 2 m/S 684 mmHg 62%
    12:00 +29°C° 0 mm 2 m/S 684 mmHg 53%
    13:00 +29°C° 0.3 mm 2 m/S 684 mmHg 56%
    14:00 +28°C° 0.3 mm 2 m/S 683 mmHg 60%
    15:00 +28°C° 0.3 mm 2 m/S 682 mmHg 64%
    16:00 +27°C° 0.4 mm 2 m/S 682 mmHg 69%
    17:00 +26°C° 0.4 mm 2 m/S 682 mmHg 73%
    18:00 +25°C° 0.4 mm 2 m/S 682 mmHg 78%
    19:00 +24°C° 0.1 mm 2 m/S 682 mmHg 83%
    20:00 +21°C° 0.1 mm 2 m/S 682 mmHg 88%
    21:00 +20°C° 0.1 mm 2 m/S 683 mmHg 93%
    22:00 +20°C° 0 mm 1 m/S 683 mmHg 93%
    23:00 +19°C° 0 mm 1 m/S 683 mmHg 93%

    26 Januar, Samstag

    Zeit Temperatur Niederschläge Wind Luftdruck Luftfeuchtigkeit
    00:00 +19°C° 0 mm 1 m/S 683 mmHg 93%
    01:00 +19°C° 0 mm 1 m/S 682 mmHg 93%
    02:00 +18°C° 0 mm 1 m/S 681 mmHg 94%
    03:00 +16°C° 0 mm 0 m/S 681 mmHg 94%
    04:00 +16°C° 0 mm 0 m/S 681 mmHg 95%
    05:00 +16°C° 0 mm 0 m/S 681 mmHg 96%
    06:00 +16°C° 0 mm 0 m/S 681 mmHg 96%
    07:00 +20°C° 0 mm 1 m/S 682 mmHg 87%
    08:00 +22°C° 0 mm 1 m/S 683 mmHg 78%
    09:00 +25°C° 0 mm 1 m/S 684 mmHg 70%
    10:00 +26°C° 0.1 mm 2 m/S 684 mmHg 66%
    11:00 +27°C° 0.1 mm 2 m/S 684 mmHg 62%
    12:00 +28°C° 0.1 mm 2 m/S 685 mmHg 59%
    13:00 +28°C° 0.5 mm 2 m/S 684 mmHg 59%
    14:00 +29°C° 0.5 mm 2 m/S 683 mmHg 59%
    15:00 +29°C° 0.5 mm 2 m/S 683 mmHg 59%
    16:00 +28°C° 0.3 mm 2 m/S 683 mmHg 64%
    17:00 +27°C° 0.3 mm 2 m/S 682 mmHg 69%
    18:00 +26°C° 0.3 mm 2 m/S 682 mmHg 74%
    19:00 +24°C° 0.3 mm 2 m/S 683 mmHg 81%
    20:00 +23°C° 0.3 mm 2 m/S 683 mmHg 88%
    21:00 +21°C° 0.3 mm 1 m/S 683 mmHg 95%
    22:00 +21°C° 0 mm 1 m/S 683 mmHg 95%
    23:00 +20°C° 0 mm 1 m/S 683 mmHg 95%

    27 Januar, Sonntag

    Zeit Temperatur Niederschläge Wind Luftdruck Luftfeuchtigkeit
    00:00 +20°C° 0 mm 1 m/S 683 mmHg 96%
    01:00 +20°C° 0 mm 1 m/S 683 mmHg 95%
    02:00 +19°C° 0 mm 1 m/S 683 mmHg 95%
    03:00 +19°C° 0 mm 1 m/S 682 mmHg 95%
    04:00 +19°C° 0 mm 1 m/S 682 mmHg 95%
    05:00 +18°C° 0 mm 1 m/S 682 mmHg 96%
    06:00 +18°C° 0 mm 1 m/S 683 mmHg 96%
    07:00 +20°C° 0 mm 1 m/S 683 mmHg 87%
    08:00 +22°C° 0 mm 1 m/S 684 mmHg 77%
    09:00 +25°C° 0 mm 1 m/S 685 mmHg 67%
    10:00 +26°C° 0 mm 2 m/S 685 mmHg 60%
    11:00 +28°C° 0 mm 2 m/S 685 mmHg 53%
    12:00 +30°C° 0 mm 2 m/S 685 mmHg 45%
    13:00 +29°C° 0.2 mm 2 m/S 685 mmHg 48%
    14:00 +29°C° 0.2 mm 2 m/S 684 mmHg 51%
    15:00 +29°C° 0.2 mm 2 m/S 684 mmHg 54%
    16:00 +27°C° 1 mm 2 m/S 684 mmHg 62%
    17:00 +26°C° 1 mm 2 m/S 683 mmHg 71%
    18:00 +25°C° 1 mm 2 m/S 683 mmHg 79%
    19:00 +23°C° 0.5 mm 1 m/S 683 mmHg 84%
    20:00 +22°C° 0.5 mm 1 m/S 684 mmHg 88%
    21:00 +21°C° 0.5 mm 1 m/S 684 mmHg 92%
    22:00 +21°C° 0 mm 1 m/S 684 mmHg 93%
    23:00 +21°C° 0 mm 1 m/S 684 mmHg 94%
    Mehr zeigen